FW5442 Weather Reports


Display with metric or nautical units.
time (UTC)temp
F
wind
direction
speed
MPH
gust
MPH
rain 1hr
in
rain 24hr
in
rain mn
in
humidity
%
barometer
mb
20260510205056 78 131 0.0 10.0 0.00 0.00 0.00 72 1015.1
20260510204556 79 136 0.0 6.0 0.00 0.00 0.00 71 1015.1
20260510204055 79 0 0.0 6.0 0.00 0.00 0.00 68 1015.1
20260510203555 79 0 0.0 6.0 0.00 0.00 0.00 67 1015.2
20260510203057 79 0 0.0 0.0 0.00 0.00 0.00 67 1015.2
20260510202555 80 0 0.0 6.0 0.00 0.00 0.00 67 1015.0
20260510202057 80 0 0.0 10.0 0.00 0.00 0.00 70 1015.1
20260510201622 79 0 0.0 10.0 0.00 0.00 0.00 69 1015.0
20260510201056 80 201 1.0 10.0 0.00 0.00 0.00 70 1015.1
20260510200558 79 0 0.0 5.0 0.00 0.00 0.00 71 1015.1
20260510200053 78 0 0.0 8.0 0.00 0.00 0.00 72 1015.2
20260510195555 77 0 0.0 8.0 0.00 0.00 0.00 73 1015.2
20260510195055 77 0 1.0 8.0 0.00 0.00 0.00 72 1015.3
20260510194604 77 0 0.0 9.0 0.00 0.00 0.00 73 1015.3
20260510194057 77 0 2.0 9.0 0.00 0.00 0.00 73 1015.3
20260510193556 77 0 0.0 6.0 0.00 0.00 0.00 74 1015.4
20260510193053 77 259 0.0 5.0 0.00 0.00 0.00 74 1015.4
20260510192555 77 0 0.0 3.0 0.00 0.00 0.00 73 1015.5
20260510192057 77 0 0.0 3.0 0.00 0.00 0.00 73 1015.6
20260510191605 77 0 0.0 3.0 0.00 0.00 0.00 72 1015.7
20260510191053 78 0 0.0 0.0 0.00 0.00 0.00 72 1015.8
20260510190556 78 0 0.0 0.0 0.00 0.00 0.00 73 1015.6
20260510190107 78 0 0.0 6.0 0.00 0.00 0.00 72 1015.8
20260510185556 78 0 0.0 6.0 0.00 0.00 0.00 71 1015.8
20260510185056 79 0 0.0 0.0 0.00 0.00 0.00 71 1015.7
20260510184556 78 0 0.0 4.0 0.00 0.00 0.00 71 1015.7
20260510184057 78 0 0.0 6.0 0.00 0.00 0.00 72 1015.8
20260510183556 77 0 0.0 7.0 0.00 0.00 0.00 72 1015.8
20260510183059 78 221 0.0 7.0 0.00 0.00 0.00 70 1015.8
20260510182552 78 0 3.0 4.0 0.00 0.00 0.00 71 1015.7
20260510182052 78 0 0.0 0.0 0.00 0.00 0.00 71 1015.7
20260510181557 78 0 0.0 6.0 0.00 0.00 0.00 72 1015.6
20260510181057 77 0 0.0 6.0 0.00 0.00 0.00 74 1015.5
20260510180556 77 0 2.0 7.0 0.00 0.00 0.00 73 1015.5
20260510180053 76 0 4.0 7.0 0.00 0.00 0.00 75 1015.5
20260510175553 75 0 1.0 8.0 0.00 0.00 0.00 78 1015.4
20260510175052 75 93 4.0 8.0 0.00 0.00 0.00 78 1015.2
20260510174558 75 87 5.0 9.0 0.00 0.00 0.00 78 1015.1
20260510174054 75 110 4.0 10.0 0.00 0.00 0.00 79 1015.1
20260510173558 74 93 6.0 10.0 0.00 0.00 0.00 79 1014.9
20260510173053 74 88 6.0 9.0 0.00 0.00 0.00 79 1014.8
20260510172553 75 96 3.0 7.0 0.00 0.00 0.00 79 1014.9
20260510172056 75 0 2.0 7.0 0.00 0.00 0.00 80 1014.8
20260510171556 74 68 2.0 7.0 0.00 0.00 0.00 81 1014.9
20260510171052 75 73 1.0 5.0 0.00 0.00 0.00 80 1015.0
20260510170555 74 86 2.0 5.0 0.00 0.00 0.00 81 1015.2
20260510170055 74 101 1.0 4.0 0.00 0.00 0.00 81 1015.6
20260510165553 73 0 1.0 6.0 0.00 0.00 0.00 82 1015.7
20260510165056 73 0 1.0 6.0 0.00 0.00 0.00 82 1015.8
20260510164554 72 337 3.0 6.0 0.00 0.00 0.00 82 1015.8
20260510164052 72 318 4.0 6.0 0.00 0.00 0.00 81 1015.8
20260510163552 72 304 2.0 6.0 0.00 0.00 0.00 81 1015.9
20260510163056 72 293 4.0 6.0 0.00 0.00 0.00 81 1016.0
20260510162552 72 336 5.0 8.0 0.00 0.00 0.00 81 1015.9
20260510162053 71 323 6.0 8.0 0.00 0.00 0.00 80 1016.0
20260510161609 72 314 5.0 8.0 0.00 0.00 0.00 81 1016.2
20260510161058 72 280 3.0 9.0 0.00 0.00 0.00 82 1016.4
20260510160554 72 273 5.0 10.0 0.00 0.00 0.00 82 1016.2
20260510160132 72 253 4.0 10.0 0.00 0.00 0.00 82 1016.3
20260510155555 72 232 7.0 10.0 0.00 0.00 0.00 82 1016.3
20260510155053 72 250 5.0 8.0 0.00 0.00 0.00 81 1016.4
20260510154603 72 212 5.0 7.0 0.00 0.00 0.00 81 1016.4
20260510154058 72 238 5.0 7.0 0.00 0.00 0.00 81 1016.4
20260510153552 72 195 4.0 7.0 0.00 0.00 0.00 81 1016.4
20260510153057 72 212 4.0 7.0 0.00 0.00 0.00 81 1016.3
20260510152553 71 221 4.0 6.0 0.00 0.00 0.00 80 1016.2
20260510152055 71 181 3.0 6.0 0.00 0.00 0.00 80 1016.1
20260510151607 71 160 3.0 6.0 0.00 0.00 0.00 79 1016.1
20260510151053 71 188 3.0 6.0 0.00 0.00 0.00 79 1016.0
20260510150553 71 195 2.0 5.0 0.00 0.00 0.00 78 1016.1
20260510150057 71 196 2.0 5.0 0.00 0.00 0.00 78 1016.0
20260510145600 71 155 3.0 5.0 0.00 0.00 0.00 76 1015.9
20260510145056 71 128 3.0 5.0 0.00 0.00 0.00 77 1015.7
20260510144601 71 121 2.0 5.0 0.00 0.00 0.00 75 1015.8
20260510144056 71 153 3.0 5.0 0.00 0.00 0.00 75 1015.7
20260510143553 71 96 3.0 5.0 0.00 0.00 0.00 73 1015.7
20260510143056 71 132 3.0 6.0 0.00 0.00 0.00 72 1015.7
20260510142552 70 147 4.0 6.0 0.00 0.00 0.00 70 1015.7
20260510142053 70 165 4.0 7.0 0.00 0.00 0.00 68 1015.8
20260510141557 70 174 5.0 7.0 0.00 0.00 0.00 68 1015.8
20260510141052 70 184 5.0 7.0 0.00 0.00 0.00 68 1015.8
20260510140552 70 176 5.0 6.0 0.00 0.00 0.00 67 1015.7
20260510135553 70 179 4.0 6.0 0.00 0.00 0.00 65 1015.4
20260510135055 69 188 5.0 7.0 0.00 0.00 0.00 62 1015.5
20260510134604 69 154 5.0 7.0 0.00 0.00 0.00 61 1015.4
20260510134053 69 169 5.0 7.0 0.00 0.00 0.00 58 1015.5
20260510133552 69 143 4.0 6.0 0.00 0.00 0.00 56 1015.4
20260510133054 69 186 4.0 6.0 0.00 0.00 0.00 56 1015.5
20260510132553 68 160 3.0 6.0 0.00 0.00 0.00 53 1015.5
20260510132053 68 155 3.0 5.0 0.00 0.00 0.00 50 1015.6
20260510131559 68 153 2.0 4.0 0.00 0.00 0.00 48 1015.5
20260510131052 68 0 0.0 0.0 0.00 0.00 0.00 44 1015.4
20260510130556 68 0 0.0 0.0 0.00 0.00 0.00 39 1015.4
20260510130056 67 0 0.0 0.0 0.00 0.00 0.00 36 1015.4
20260510125555 67 0 0.0 0.0 0.00 0.00 0.00 37 1015.6
20260510125053 67 0 0.0 0.0 0.00 0.00 0.00 34 1015.4
20260510124603 66 0 0.0 0.0 0.00 0.00 0.00 30 1015.3
20260510124052 66 0 0.0 0.0 0.00 0.00 0.00 28 1015.2
20260510123555 66 0 0.0 0.0 0.00 0.00 0.00 26 1015.2
20260510123053 65 0 0.0 0.0 0.00 0.00 0.00 26 1015.2
20260510122553 65 0 0.0 0.0 0.00 0.00 0.00 26 1015.2
20260510122053 65 0 0.0 0.0 0.00 0.00 0.00 25 1015.1
20260510121553 64 0 0.0 0.0 0.00 0.00 0.00 26 1015.0
20260510121052 64 0 0.0 0.0 0.00 0.00 0.00 26 1015.0
20260510120553 64 0 0.0 0.0 0.00 0.00 0.00 26 1015.1
20260510120053 63 0 0.0 0.0 0.00 0.00 0.00 27 1015.1
20260510115555 63 0 0.0 0.0 0.00 0.00 0.00 28 1015.1
20260510115053 63 0 0.0 0.0 0.00 0.00 0.00 28 1015.1
20260510114556 62 0 0.0 0.0 0.00 0.00 0.00 29 1015.1
20260510114056 62 0 0.0 0.0 0.00 0.00 0.00 30 1014.9
20260510113555 62 0 0.0 0.0 0.00 0.00 0.00 30 1014.9
20260510113102 62 0 0.0 0.0 0.00 0.00 0.00 31 1014.9
20260510112552 62 0 0.0 0.0 0.00 0.00 0.00 31 1015.0
20260510112055 62 0 0.0 0.0 0.00 0.00 0.00 32 1014.9
20260510111609 62 0 0.0 0.0 0.00 0.00 0.00 32 1014.7
20260510111052 62 0 0.0 0.0 0.00 0.00 0.00 32 1014.7
20260510110555 62 0 0.0 4.0 0.00 0.00 0.00 32 1014.7
20260510110057 62 0 1.0 8.0 0.00 0.00 0.00 33 1014.7
20260510105552 62 173 3.0 8.0 0.00 0.00 0.00 34 1014.5
20260510105052 62 207 0.0 8.0 0.00 0.00 0.00 34 1014.6
20260510104555 63 0 0.0 0.0 0.00 0.00 0.00 31 1014.5
20260510104051 63 0 0.0 0.0 0.00 0.00 0.00 31 1014.4
20260510103554 62 0 0.0 0.0 0.00 0.00 0.00 33 1014.3
20260510103055 62 0 0.0 0.0 0.00 0.00 0.00 35 1014.3
20260510102553 63 0 0.0 0.0 0.00 0.00 0.00 34 1014.2
20260510102053 63 0 0.0 0.0 0.00 0.00 0.00 32 1014.1
20260510101557 63 0 0.0 0.0 0.00 0.00 0.00 31 1014.1
20260510101055 63 0 0.0 0.0 0.00 0.00 0.00 31 1014.0
20260510100553 63 0 0.0 0.0 0.00 0.00 0.00 31 1013.9
20260510100057 63 0 0.0 0.0 0.00 0.00 0.00 31 1013.8
20260510095555 63 0 0.0 0.0 0.00 0.00 0.00 32 1013.6
20260510095054 63 0 0.0 0.0 0.00 0.00 0.00 32 1013.5
20260510094556 63 0 0.0 0.0 0.00 0.00 0.00 33 1013.4
20260510094055 63 0 0.0 0.0 0.00 0.00 0.00 33 1013.5
20260510093555 63 0 0.0 0.0 0.00 0.00 0.00 33 1013.4
20260510093111 63 0 0.0 0.0 0.00 0.00 0.00 36 1013.2
20260510092556 63 0 0.0 0.0 0.00 0.00 0.00 36 1013.1
20260510092056 63 0 0.0 0.0 0.00 0.00 0.00 34 1013.2
20260510091553 63 0 0.0 0.0 0.00 0.00 0.00 35 1013.0
20260510091055 63 0 0.0 0.0 0.00 0.00 0.00 36 1013.1
20260510090555 63 0 0.0 0.0 0.00 0.00 0.00 36 1012.8
20260510090116 63 0 0.0 0.0 0.00 0.00 0.00 37 1012.8
20260510085557 63 0 0.0 0.0 0.00 0.00 0.00 39 1012.8
20260510085055 63 0 0.0 0.0 0.00 0.00 0.00 39 1012.6
20260510084552 63 0 0.0 0.0 0.00 0.00 0.00 39 1012.6
20260510084055 63 0 0.0 0.0 0.00 0.00 0.00 39 1012.5
20260510083556 63 0 0.0 0.0 0.00 0.00 0.00 42 1012.6
20260510083111 63 0 0.0 0.0 0.00 0.00 0.00 50 1012.5
20260510082554 64 0 0.0 0.0 0.00 0.00 0.00 46 1012.5
20260510082056 64 0 0.0 0.0 0.00 0.00 0.00 42 1012.5
20260510081609 64 0 0.0 0.0 0.00 0.00 0.00 42 1012.7
20260510081055 65 0 0.0 0.0 0.00 0.00 0.00 41 1012.6
20260510080556 64 0 0.0 0.0 0.00 0.00 0.00 43 1012.7
20260510080100 64 0 0.0 0.0 0.00 0.00 0.00 44 1012.6
20260510075555 64 0 0.0 0.0 0.00 0.00 0.00 47 1012.6
20260510075055 64 0 0.0 0.0 0.00 0.00 0.00 52 1012.4
20260510074558 65 0 0.0 0.0 0.00 0.00 0.00 57 1012.5
20260510074059 65 0 0.0 0.0 0.00 0.00 0.00 55 1012.6
20260510073555 65 0 0.0 0.0 0.00 0.00 0.00 56 1012.4
20260510073054 65 0 0.0 0.0 0.00 0.00 0.00 57 1012.5
20260510072555 66 0 0.0 0.0 0.00 0.00 0.00 59 1012.5
20260510072059 66 0 0.0 0.0 0.00 0.00 0.00 57 1012.4
20260510071555 66 0 0.0 0.0 0.00 0.00 0.00 57 1012.3
20260510071054 66 0 0.0 0.0 0.00 0.00 0.00 58 1012.4
20260510070556 66 0 0.0 0.0 0.00 0.00 0.00 58 1012.3
20260510065558 66 0 0.0 0.0 0.00 0.00 0.00 58 1012.4
20260510065057 66 0 0.0 0.0 0.00 0.00 0.00 59 1012.4
20260510064608 66 0 0.0 0.0 0.00 0.00 0.00 59 1012.3
20260510064054 66 0 0.0 0.0 0.00 0.00 0.00 58 1012.4
20260510063555 65 0 0.0 0.0 0.00 0.00 0.00 59 1012.4
20260510063055 65 0 0.0 0.0 0.00 0.00 0.00 61 1012.6
20260510062555 65 0 0.0 0.0 0.00 0.00 0.00 64 1012.6
20260510062055 65 0 0.0 0.0 0.00 0.00 0.00 69 1012.5
20260510061557 65 0 0.0 0.0 0.00 0.00 0.00 70 1012.5
20260510061055 66 0 0.0 0.0 0.00 0.00 0.00 70 1012.4
20260510060556 66 0 0.0 0.0 0.00 0.00 0.00 72 1012.4
20260510060057 66 0 0.0 0.0 0.00 0.00 0.00 73 1012.3
20260510055554 66 0 0.0 0.0 0.00 0.00 0.00 75 1012.4
20260510055055 66 0 0.0 0.0 0.00 0.00 0.00 74 1012.4
20260510054556 67 0 0.0 0.0 0.00 0.00 0.00 74 1012.4
20260510054055 67 0 0.0 0.0 0.00 0.00 0.00 74 1012.5
20260510053555 67 0 0.0 0.0 0.00 0.00 0.00 75 1012.5
20260510053059 67 0 0.0 0.0 0.00 0.00 0.00 76 1012.6
20260510052557 67 0 0.0 0.0 0.00 0.00 0.00 75 1012.5
20260510052055 67 0 0.0 0.0 0.00 0.00 0.00 75 1012.6
20260510051559 67 0 0.0 0.0 0.00 0.00 0.00 76 1012.4
20260510051054 67 0 0.0 0.0 0.00 0.00 0.00 76 1012.5
20260510050555 67 0 0.0 0.0 0.00 0.00 0.00 77 1012.6
20260510050055 67 0 0.0 0.0 0.00 0.00 0.00 78 1012.5
20260510045555 67 0 0.0 0.0 0.00 0.00 0.00 79 1012.4
20260510045055 67 0 0.0 0.0 0.00 0.00 0.00 79 1012.5
20260510044638 67 0 0.0 0.0 0.00 0.00 0.00 80 1012.4
20260510044055 67 0 0.0 0.0 0.00 0.00 0.00 80 1012.4
20260510043556 67 0 0.0 0.0 0.00 0.00 0.00 80 1012.3
20260510043055 67 0 0.0 0.0 0.00 0.00 0.00 81 1012.3
20260510042558 68 0 0.0 0.0 0.00 0.00 0.00 81 1012.4
20260510042055 68 0 0.0 0.0 0.00 0.00 0.00 81 1012.5
20260510041559 68 0 0.0 0.0 0.00 0.00 0.00 81 1012.5
20260510041057 68 0 0.0 0.0 0.00 0.00 0.00 82 1012.3
20260510040555 68 0 0.0 0.0 0.00 0.00 0.00 82 1012.3
20260510040053 68 0 0.0 0.0 0.00 0.00 0.00 82 1012.2
20260510035555 68 0 0.0 0.0 0.00 0.00 0.00 82 1012.3
20260510035055 68 0 0.0 0.0 0.00 0.00 0.00 82 1012.2
20260510034602 69 0 0.0 0.0 0.00 0.00 0.00 82 1012.2
20260510034052 69 0 0.0 0.0 0.00 0.00 0.00 82 1012.2
20260510033555 69 0 0.0 0.0 0.00 0.00 0.00 82 1012.3
20260510033100 69 0 0.0 0.0 0.00 0.00 0.00 81 1012.3
20260510032555 69 0 0.0 0.0 0.00 0.00 0.00 81 1012.2
20260510032056 70 0 0.0 0.0 0.00 0.00 0.00 80 1012.3
20260510031559 70 0 0.0 0.0 0.00 0.00 0.00 80 1012.4
20260510031058 70 0 0.0 0.0 0.00 0.00 0.00 79 1012.3
20260510030555 71 0 0.0 0.0 0.00 0.00 0.00 79 1012.2
20260510030058 71 0 0.0 7.0 0.00 0.00 0.00 79 1012.2
20260510025555 71 0 1.0 7.0 0.00 0.00 0.00 78 1012.2
20260510025052 71 211 1.0 7.0 0.00 0.00 0.00 78 1012.0
20260510024556 71 0 1.0 6.0 0.00 0.00 0.00 77 1012.1
20260510024052 71 0 2.0 6.0 0.00 0.00 0.00 77 1012.1
20260510023552 71 0 0.0 0.0 0.00 0.00 0.00 76 1011.9
20260510023054 72 0 0.0 0.0 0.00 0.00 0.00 75 1012.0
20260510022556 72 0 0.0 0.0 0.00 0.00 0.00 75 1011.9
20260510022056 72 0 0.0 0.0 0.00 0.00 0.00 75 1011.9
20260510021557 72 0 0.0 0.0 0.00 0.00 0.00 74 1011.8
20260510021051 72 0 0.0 0.0 0.00 0.00 0.00 74 1011.7
20260510020551 72 0 0.0 0.0 0.00 0.00 0.00 74 1011.7
20260510020054 72 0 0.0 0.0 0.00 0.00 0.00 73 1011.5
20260510015551 72 0 0.0 0.0 0.00 0.00 0.00 72 1011.6
20260510015055 72 0 0.0 0.0 0.00 0.00 0.00 72 1011.4
20260510014556 72 0 0.0 0.0 0.00 0.00 0.00 71 1011.4
20260510014055 73 0 0.0 0.0 0.00 0.00 0.00 71 1011.4
20260510013552 73 0 0.0 0.0 0.00 0.00 0.00 70 1011.3
20260510013053 73 0 0.0 0.0 0.00 0.00 0.00 70 1011.2
20260510012552 73 0 0.0 0.0 0.00 0.00 0.00 69 1011.1
20260510012052 74 0 0.0 0.0 0.00 0.00 0.00 68 1011.1
20260510011558 74 0 0.0 0.0 0.00 0.00 0.00 68 1011.1
20260510011054 74 0 0.0 0.0 0.00 0.00 0.00 68 1010.7
20260510010551 74 0 0.0 0.0 0.00 0.00 0.00 68 1010.7
20260510010126 75 0 0.0 0.0 0.00 0.00 0.00 68 1010.7
20260510005552 75 0 0.0 5.0 0.00 0.00 0.00 68 1010.6
20260510005055 75 0 0.0 5.0 0.00 0.00 0.00 67 1010.3
20260510004554 76 167 0.0 8.0 0.00 0.00 0.00 67 1010.3
20260510004055 76 0 0.0 8.0 0.00 0.00 0.00 67 1010.1
20260510003552 76 0 1.0 8.0 0.00 0.00 0.00 67 1010.2
20260510003054 77 194 0.0 0.0 0.00 0.00 0.00 66 1010.1
20260510002551 77 0 0.0 0.0 0.00 0.00 0.00 65 1009.9
20260510002051 78 0 0.0 5.0 0.00 0.00 0.00 65 1009.9
20260510001604 78 0 0.0 5.0 0.00 0.00 0.00 63 1009.9
20260510001052 78 0 0.0 9.0 0.00 0.00 0.00 64 1009.7
20260510000551 78 0 0.0 9.0 0.00 0.00 0.00 64 1009.7
20260510000054 79 0 0.0 9.0 0.00 0.00 0.00 62 1009.7
20260509235551 79 0 1.0 9.0 0.00 0.00 0.00 63 1009.5
20260509235051 79 0 1.0 9.0 0.00 0.00 0.00 61 1009.5
20260509234632 79 0 0.0 9.0 0.00 0.00 0.00 63 1009.4
20260509234051 79 0 1.0 9.0 0.00 0.00 0.00 62 1009.5
20260509233552 79 0 0.0 7.0 0.00 0.00 0.00 61 1009.4
20260509233057 79 0 0.0 14.0 0.00 0.00 0.00 61 1009.4
20260509232556 79 0 2.0 14.0 0.00 0.00 0.00 62 1009.4
20260509232055 79 0 8.0 14.0 0.00 0.00 0.00 62 1009.5
20260509231555 79 0 0.0 9.0 0.00 0.00 0.00 61 1009.6
20260509231055 79 0 3.0 10.0 0.00 0.00 0.00 62 1009.4
20260509230551 79 0 0.0 11.0 0.00 0.00 0.00 62 1009.5
20260509230058 78 0 3.0 11.0 0.00 0.00 0.00 62 1009.5
20260509225553 79 0 2.0 11.0 0.00 0.00 0.00 61 1009.4
20260509225051 80 189 2.0 9.0 0.00 0.00 0.00 61 1009.5
20260509224553 79 0 2.0 10.0 0.00 0.00 0.00 62 1009.4
20260509224054 79 163 3.0 10.0 0.00 0.00 0.00 62 1009.5
20260509223552 79 129 2.0 10.0 0.00 0.00 0.00 62 1009.5
20260509223055 78 161 2.0 12.0 0.00 0.00 0.00 64 1009.5
20260509222554 78 180 7.0 15.0 0.00 0.00 0.00 64 1009.5
20260509222051 78 166 4.0 15.0 0.00 0.00 0.00 65 1009.5
20260509221554 78 217 7.0 16.0 0.00 0.00 0.00 64 1009.6
20260509221054 78 165 8.0 16.0 0.00 0.00 0.00 64 1009.4
20260509220551 78 137 11.0 15.0 0.00 0.00 0.00 63 1009.4
20260509215551 79 186 7.0 13.0 0.00 0.00 0.00 62 1009.5
20260509215052 80 174 8.0 13.0 0.00 0.00 0.00 61 1009.4
20260509214554 81 195 8.0 13.0 0.00 0.00 0.00 59 1009.2
20260509214051 81 159 5.0 13.0 0.00 0.00 0.00 59 1009.2
20260509213555 80 168 5.0 13.0 0.00 0.00 0.00 60 1009.4
20260509213057 81 189 9.0 12.0 0.00 0.00 0.00 59 1009.3
20260509212551 81 205 3.0 12.0 0.00 0.00 0.00 59 1009.2
20260509212054 81 219 8.0 12.0 0.00 0.00 0.00 58 1009.3
20260509211556 81 0 0.0 9.0 0.00 0.00 0.00 58 1009.4
20260509211057 82 262 5.0 9.0 0.00 0.00 0.00 57 1009.4
20260509210552 83 0 3.0 9.0 0.00 0.00 0.00 54 1009.4
20260509210052 83 0 0.0 8.0 0.00 0.00 0.00 55 1009.5
20260509205551 81 0 0.0 8.0 0.00 0.00 0.00 57 1009.6